This is the latest recevied weather packets stored in our database for station/object WX4HP-13. If no packets are shown the sender has not sent any weather packets the latest 10 day(s).
| Time | Temp. | Humidity | Pressure | Rain* | Wind** | Luminosity | Snow |
|---|---|---|---|---|---|---|---|
| 1777499696 | 24.44° C | 70% | 1009.7 hPa | 0 mm | - | - | - |
| 1777499396 | 25° C | 70% | 1009.7 hPa | 0 mm | - | - | - |
| 1777499097 | 25° C | 70% | 1009.5 hPa | 0 mm | - | - | - |
| 1777498796 | 25° C | 70% | 1009.5 hPa | 0 mm | - | - | - |
| 1777498495 | 25° C | 71% | 1009.3 hPa | 0 mm | - | - | - |
| 1777498196 | 25° C | 71% | 1009.4 hPa | 0 mm | - | - | - |
| 1777497897 | 25° C | 72% | 1009.5 hPa | 0 mm | - | - | - |
| 1777497596 | 25° C | 71% | 1009.6 hPa | 0 mm | - | - | - |
| 1777497298 | 25° C | 71% | 1009.7 hPa | 0 mm | - | - | - |
| 1777496996 | 25° C | 71% | 1009.7 hPa | 0 mm | - | - | - |
| 1777496696 | 25.56° C | 68% | 1009.7 hPa | 0 mm | - | - | - |
| 1777496396 | 26.11° C | 69% | 1009.7 hPa | 0 mm | - | - | - |
| 1777496095 | 25.56° C | 70% | 1009.7 hPa | 0 mm | - | - | - |
| 1777495796 | 25.56° C | 69% | 1009.6 hPa | 0 mm | - | - | - |
| 1777495495 | 25.56° C | 69% | 1009.6 hPa | 0 mm | - | - | - |
| 1777495195 | 26.11° C | 68% | 1009.5 hPa | 0 mm | - | - | - |
| 1777494896 | 26.67° C | 67% | 1009.6 hPa | 0 mm | - | - | - |
| 1777494596 | 26.11° C | 67% | 1009.6 hPa | 0 mm | - | - | - |
| 1777494295 | 26.11° C | 66% | 1009.7 hPa | 0 mm | - | - | - |
| 1777493995 | 25.56° C | 68% | 1009.9 hPa | 0 mm | - | - | - |
| 1777493696 | 25° C | 69% | 1010 hPa | 0 mm | - | - | - |
| 1777493395 | 25° C | 68% | 1010.1 hPa | 0 mm | - | - | - |
| 1777493095 | 25.56° C | 65% | 1009.9 hPa | 0 mm | - | - | - |
| 1777492796 | 26.67° C | 64% | 1009.9 hPa | 0 mm | - | - | - |
| 1777492496 | 26.67° C | 66% | 1010.1 hPa | 0 mm | - | - | - |
* Rain latest hour (hover to see other rain measurements)
** Current wind speed in m/s (hover to see current wind gust speed)